Location: Arroyo Grande
(40.2671°N, 4.2512°W)
Time: 23:59:06
(UTC+00:00)

Cosmos 2278 Rocket - Pass Details

Date: 26 September 2023
Orbit: 842 x 844 km, 71.0° (Epoch: 03 December)

Event Time Altitude Azimuth Distance (km) Brightness Sun altitude
Rises 20:26:40 0° 338° (NNW) 3,410 6.0 -26.7°
Reaches altitude 10° 20:29:08 10° 340° (NNW) 2,471 5.1 -27.1°
Enters shadow 20:34:15 67° 22° (NNE) 914 2.2 -28.0°
